Location: Muenchen
(48.1800°N, 11.5800°E)
Time: 04:13:14
(UTC+02:00)

Tiros 1 - Visible Passes

Search period start: 28 August 2015 00:00
Search period end: 07 September 2015 00:00
Orbit: 631 x 666 km, 48.4° (Epoch: 26 August)

Date Brightness Start Highest point End Pass type
(mag) Time Alt. Az. Time Alt. Az. Time Alt. Az.
28 Aug 7.3 03:40:35 61° SSE 03:40:35 61° SSE 03:45:16 10° E visible
28 Aug 7.2 05:18:16 12° W 05:22:43 86° N 05:27:35 10° E visible
29 Aug 9.4 02:28:11 17° E 02:28:11 17° E 02:29:27 10° E visible
29 Aug 7.1 04:05:52 53° WSW 04:07:00 83° SSE 04:11:51 10° E visible
29 Aug 7.2 05:44:29 10° W 05:49:20 89° S 05:54:11 10° E visible
30 Aug 8.6 02:53:29 31° E 02:53:29 31° E 02:56:08 10° E visible
30 Aug 7.2 04:31:10 30° W 04:33:36 87° N 04:38:27 10° E visible
31 Aug 7.6 03:18:49 57° E 03:18:49 57° E 03:22:43 10° E visible
31 Aug 7.2 04:56:30 17° W 05:00:12 90° S 05:05:02 10° E visible
01 Sep 9.8 02:06:31 13° E 02:06:31 13° E 02:07:00 10° E visible
01 Sep 7.1 03:44:13 81° WNW 03:44:27 87° N 03:49:18 10° E visible
01 Sep 7.2 05:21:56 10° W 05:26:45 73° SSW 05:31:33 10° ESE visible
02 Sep 9.2 02:31:59 21° E 02:31:59 21° E 02:33:34 10° E visible
02 Sep 7.1 04:09:41 47° W 04:11:04 89° N 04:15:54 10° E visible
02 Sep 7.5 05:48:32 10° W 05:53:11 49° SSW 05:57:50 10° SE visible
03 Sep 8.6 02:57:34 32° E 02:57:34 32° E 03:00:10 10° E visible
03 Sep 7.1 04:35:17 30° W 04:37:37 75° SSW 04:42:26 10° ESE visible
04 Sep 7.9 03:23:18 47° E 03:23:18 47° E 03:26:46 10° E visible
04 Sep 7.4 05:01:02 20° W 05:04:04 51° SSW 05:08:45 10° SE visible
05 Sep 7.4 03:49:16 61° SE 03:49:16 61° SE 03:53:18 10° ESE visible
05 Sep 8.0 05:27:00 14° W 05:30:23 31° SSW 05:34:35 10° SSE visible
06 Sep 7.4 04:15:29 50° S 04:15:29 50° S 04:19:38 10° SE visible
06 Sep 8.8 05:53:26 10° W 05:56:32 17° SW 05:59:31 10° S visible
